CST,Max TemperatureF,Mean TemperatureF,Min TemperatureF,Max Dew PointF,MeanDew PointF,Min DewpointF,Max Humidity, Mean Humidity, Min Humidity, Max Sea Level PressureIn, Mean Sea Level PressureIn, Min Sea Level PressureIn, Max VisibilityMiles, Mean VisibilityMiles, Min VisibilityMiles, Max Wind SpeedMPH, Mean Wind SpeedMPH, Max Gust SpeedMPH,PrecipitationIn, CloudCover, Events, WindDirDegrees
2013-12-1,58,46,33,38,34,30,89,66,43,30.15,30.06,29.92,10,9,7,8,3,9,0.00,2,,29
2013-12-2,59,49,39,44,39,32,86,72,57,29.91,29.78,29.70,9,7,5,10,5,14,0.00,5,,125
2013-12-3,60,53,46,50,48,44,93,80,67,29.71,29.68,29.62,9,5,3,18,9,24,0.00,7,,168
2013-12-4,69,55,40,54,48,31,93,73,53,29.88,29.66,29.52,10,4,0,22,11,28,T,7,Fog,144
2013-12-5,40,31,22,29,18,11,84,67,50,30.34,30.18,29.90,10,8,1,17,12,27,0.11,8,Rain-Snow,315
2013-12-6,24,20,15,15,8,3,68,59,49,30.66,30.46,30.33,10,9,4,16,11,20,T,7,Snow,346
2013-12-7,24,18,11,8,5,2,67,55,42,30.77,30.67,30.51,10,10,10,14,8,17,0.00,4,,25
2013-12-8,29,25,20,25,19,9,88,73,57,30.48,30.20,30.03,10,4,1,14,8,18,0.05,8,Snow,121
2013-12-9,29,26,22,23,15,11,78,69,59,30.37,30.27,30.11,10,10,8,20,10,38,T,7,Snow,290
2013-12-10,38,27,15,15,12,7,73,54,35,30.36,30.33,30.29,10,10,9,21,7,28,0.00,1,,261
2013-12-11,34,24,13,19,9,-3,74,57,40,30.71,30.52,30.33,10,10,10,21,9,26,0.00,1,,315
2013-12-12,40,26,11,12,6,-2,63,45,27,30.68,30.50,30.31,10,10,10,15,7,18,0.00,1,,191
2013-12-13,36,29,21,31,25,13,89,66,43,30.29,30.10,29.97,10,6,1,15,6,18,0.36,7,Rain-Snow,149
2013-12-14,35,31,27,32,29,22,96,86,75,30.18,29.96,29.85,7,3,0,22,10,26,0.41,8,Fog-Snow,330
2013-12-15,37,30,22,27,21,16,85,72,59,30.24,30.16,30.07,10,7,5,21,8,25,0.00,5,,265
2013-12-16,34,29,24,27,24,21,88,79,69,30.18,30.08,30.02,8,4,2,10,4,15,0.00,6,,344
2013-12-17,41,33,25,28,24,18,85,70,55,30.31,30.23,30.14,10,6,3,16,8,22,0.00,4,,277
2013-12-18,52,38,23,34,23,16,74,54,34,30.30,30.13,29.95,10,10,10,15,7,20,0.00,3,,168
2013-12-19,61,51,40,48,42,34,76,67,57,29.95,29.88,29.78,10,10,10,22,10,26,0.00,7,,175
2013-12-20,71,54,37,56,42,32,85,73,61,29.88,29.80,29.69,10,8,4,25,10,31,0.03,7,Rain,274
2013-12-21,37,35,33,34,31,30,89,86,82,29.86,29.75,29.63,10,5,2,16,8,22,0.90,8,Rain,352
2013-12-22,36,32,27,31,28,20,89,82,75,30.31,29.98,29.66,10,7,1,20,12,25,0.10,8,Rain-Snow,276
2013-12-23,27,20,12,19,12,1,75,66,57,30.65,30.53,30.33,10,10,7,20,12,26,T,6,Snow,301
2013-12-24,24,16,7,10,1,-6,69,50,31,30.68,30.57,30.40,10,10,10,21,9,28,0.00,3,,186
2013-12-25,37,31,24,28,22,11,75,65,55,30.41,30.33,30.27,10,9,7,16,10,24,0.00,8,,237
2013-12-26,52,39,25,27,22,15,85,55,24,30.40,30.34,30.28,10,9,4,15,7,21,0.00,1,,220
2013-12-27,56,42,28,29,26,21,75,53,30,30.41,30.33,30.25,10,10,10,14,6,18,0.00,1,,229
2013-12-28,61,49,36,28,26,23,64,45,25,30.25,30.10,29.92,10,10,10,18,9,25,0.00,3,,200
2013-12-29,45,31,17,29,20,5,75,62,49,30.32,30.09,29.88,10,10,8,22,13,30,0.00,6,,308
2013-12-30,31,21,10,10,1,-3,66,48,29,30.41,30.33,30.27,10,10,10,13,5,17,0.00,4,,304
2013-12-31,44,34,24,22,17,11,62,49,36,30.45,30.30,30.19,10,10,10,16,9,22,0.00,3,,212